Regional Weather Roundup
Issued by NWS

Home | Current Version | Previous Version | Text Only | Print | Product List | Glossary On
Versions: 1 2 3 4 5 6 7 8 9 10 11 12 13 14 15 16 17 18 19 20 21 22 23 24 25 26 27 28 29 30 31 32 33 34 35 36 37 38 39 40 41 42 43 44 45 46 47 48 49 50
000
ASUS43 KDTX 161601
RWRMI
MICHIGAN HOURLY REGIONAL WEATHER ROUNDUP
NATIONAL WEATHER SERVICE DETROIT/PONTIAC MI
1100 AM EST TUE JAN 16 2018

NOTE: "FAIR" INDICATES FEW OR NO CLOUDS BELOW 12,000 FEET WITH NO
SIGNIFICANT WEATHER AND/OR OBSTRUCTION TO VISIBILITY.

MIZ047>049-052>055-059>063-066>070-074>076-081>083-161700-
SOUTHEAST LOWER MICHIGAN

CITY           SKY/WX    TMP DP  RH WIND       PRES   REMARKS
ADRIAN         CLOUDY     3  -2  79 W8        30.43S WCI -10
ANN ARBOR      LGT SNOW  10   6  84 S6        30.39S FOG     WCI   0
BAD AXE        FAIR      15  13  92 W5        30.35S WCI   7
CARO           LGT SNOW  14  12  92 SW3       30.37S
DETROIT CITY   CLOUDY    15  10  80 SW10      30.39S HAZE    WCI   2
DETROIT        FLURRIES  11   5  77 SW14      30.41S WCI  -5
FLINT          LGT SNOW  14  11  87 SW8       30.38R FOG     WCI   3
GROSSE ILE     LGT SNOW  10   5  79 SW10      30.42R WCI  -4
HILLSDALE      LGT SNOW   7   0  72 W5        30.37S WCI  -2
HOWELL         LGT SNOW  12   9  85 W8        30.38R WCI   1

CITY           SKY/WX    TMP DP  RH WIND       PRES   REMARKS
JACKSON        CLOUDY     7   1  76 W6        30.39S WCI  -3
LAMBERTVILLE   LGT SNOW   6  -1  73 W10       30.45S WCI  -9
LANSING        LGT SNOW   9   5  84 SW12      30.40S FOG     WCI  -6
LAPEER         LGT SNOW  16  14  92 W6        30.36F WCI   7
MASON          LGT SNOW   9   1  70 W6        30.40R WCI   0
MONROE         LGT SNOW   7  -1  70 SW14      30.43S WCI -10
MT. CLEMENS    LGT SNOW  18  15  86 W9        30.36S FOG     WCI   7
PONTIAC        LGT SNOW  14  11  87 W8        30.35S FOG     WCI   3
PORT HOPE        N/A     19  14  81 W6        30.34R WCI  11
PORT HURON     FLURRIES  18  14  86 W3        30.37S
TRI CITIES     LGT SNOW  13  12  96 W6        30.39S FOG     WCI   4
MIDLAND        SNOW      19  17  92 CALM      30.39S VSB 1/2
TROY           CLOUDY    17  12  80 SW6       30.40R HAZE    WCI   9
SAGINAW HB     LGT SNOW  14  12  92 CALM      30.38S
$$
MIZ043>046-050>051-056>058-064>065-071>073-077>080-161700-
SOUTHWEST LOWER MICHIGAN

CITY           SKY/WX    TMP DP  RH WIND       PRES   REMARKS
BATTLE CREEK   LGT SNOW   4   0  83 S8        30.41R FOG     WCI  -9
BENTON HARBOR  PTSUNNY    5  -2  72 SE6       30.44S WCI  -6
BIG RAPIDS     LGT SNOW  16  11  80 N3        30.38S
COLDWATER      FLURRIES   4  -2  76 SW8       30.41F WCI -10
FREMONT        PTSUNNY   14   7  73 N3        30.41R
HOLLAND        CLOUDY    10   5  80 S6        30.42R WCI   0
GRAND RAPIDS   FLURRIES  10   5  80 SW7       30.40S WCI  -1
IONIA          CLOUDY    13   8  82 SW6       30.39R FOG     WCI   3
KALAMAZOO      LGT SNOW   4  -1  80 S6        30.42R VSB 1   WCI  -7
LUDINGTON      FAIR      17  13  82 CALM      30.44R
MARSHALL       LGT SNOW   5  -1  74 SW8       30.41R WCI  -8
MOUNT PLEASANT LGT SNOW  17  13  82 N3        30.38S
MUSKEGON       FAIR      15   9  76 E3        30.43R
SOUTH HAVEN    PTSUNNY    8   1  74 S5        30.43R WCI  -1
$$
MIZ016>042-161700-
NORTHERN LOWER MICHIGAN

CITY           SKY/WX    TMP DP  RH WIND       PRES   REMARKS
ALPENA         PTSUNNY   13   9  84 N8        30.42R WCI   2
BELLAIRE       FAIR      14  10  85 N7        30.46R WCI   4
CADILLAC       FAIR      14   9  81 NE9       30.36R WCI   2
CHARLEVOIX     FLURRIES  16   9  72 NE8       30.48S WCI   5
FRANKFORT      LGT SNOW  20  15  80 NE6       30.45R WCI  13
GAYLORD        FAIR      11   7  84 MISG      30.37R
GRAYLING         N/A     13   7  77 N7        30.39R WCI   2
HARBOR SPRINGS LGT SNOW  12   7  81 N5        30.45R WCI   4
HOUGHTON LAKE  FAIR      14  10  84 N9        30.37R WCI   2
MANISTEE       FAIR      19  13  77 NE12      30.44R WCI   7
OSCODA         FLURRIES  19  12  76 N9        30.38R WCI   7
PELLSTON       LGT SNOW  13   9  84 N6        30.46R FOG     WCI   4
ROGERS CITY    LGT SNOW  14   8  75 N8        30.45R WCI   3
TRAVERSE CITY  FLURRIES  18  12  77 NE7       30.44R WCI   9
$$
MIZ007>008-015-161700-
EASTERN UPPER MICHIGAN

CITY           SKY/WX    TMP DP  RH WIND       PRES   REMARKS
KINROSS        FAIR      10   3  73 N9        30.46R WCI  -3
MACKINAC ISLAN FAIR      12   6  74 N7        30.45S WCI   2
NEWBERRY       FAIR      11   4  74 NE7       30.46S WCI   0
S. S. MARIE    FAIR      12   2  64 CALM      30.47R
MUNISING         N/A     19  15  84 CALM      30.48S
$$
MIZ004>006-011>014-085-161700-
CENTRAL UPPER MICHIGAN

CITY           SKY/WX    TMP DP  RH WIND       PRES   REMARKS
MANISTIQUE     FAIR      12   8  82 NE6       30.48S WCI   3
ESCANABA       FLURRIES  18  12  77 CALM      30.50F
MENOMINEE      LGT SNOW  17  12  80 N9        30.51R WCI   6
SAWYER-GWINN   LGT SNOW  19  16  86 CALM      30.45S
$$
MIZ001>003-009>011-084-161700-
WESTERN UPPER MICHIGAN

CITY           SKY/WX    TMP DP  RH WIND       PRES   REMARKS
IRON MOUNTAIN  LGT SNOW  14  12  92 N3        30.45S FOG
HOUGHTON       LGT SNOW  17   9  70 N9        30.49S WCI   6
COPPER HARBOR    N/A     20  14  77 NE13      30.51R WCI   7
IRONWOOD       LGT SNOW  17  12  80 NW5       30.53S WCI  10
$$

ABBREVIATIONS USED IN REMARKS
   TC - TEMPERATURE IN CELSIUS
  WCI - WIND CHILL INDEX
   HX - HEAT INDEX
  VSB - VISIBILITY





USA.gov is the U.S. government's official web portal to all federal, state and local government web resources and services.